軌道要素
Epoch 2018 June 11.0 TT = JDT 2458280.5
T 2018 June 22.32480 TT MPCW
q 2.5217191 (2000.0) P Q
n 0.14991495 Peri. 173.11438 -0.61679400 +0.77700601
a 3.5094529 Node 58.72194 -0.72901090 -0.50363990
e 0.2814495 Incl. 8.46464 -0.29683037 -0.37763543
P 6.57
From 123 observations 2011 Feb. 10-2018 Apr. 20, mean residual 0".6.
|